1519336800.09,36592,11.06,72754.0,-12.07,-27.77,-30.55,0,*69
1519336801.36,36593,11.06,72754.5,-12.07,-27.77,-30.73,0,*6C
1519336802.61,36594,11.06,72754.8,-12.07,-27.77,-30.67,0,*6E
1519336803.88,36595,11.06,72754.3,-12.07,-27.83,-30.67,0,*64
1519336805.11,36596,11.06,72752.5,-12.05,-27.77,-30.67,0,*6E
1519336806.39,36597,11.06,72754.0,-12.07,-27.83,-30.55,0,*67
1519336807.62,36598,11.06,72754.0,-12.05,-27.77,-30.67,0,*60
1519336808.89,36599,11.06,72754.5,-12.07,-27.83,-30.67,0,*68
1519336810.15,36600,11.06,72752.8,-12.09,-27.83,-30.77,0,*64
1519336811.43,36601,11.06,72752.5,-12.07,-27.77,-30.73,0,*64
1519336812.7,36602,11.06,72752.5,-12.07,-27.77,-30.73,0,*67
1519336813.95,36603,11.06,72752.3,-12.05,-27.77,-30.73,0,*64
1519336815.22,36604,11.06,72752.0,-12.07,-27.83,-30.83,0,*65
1519336816.44,36605,11.06,72754.0,-12.05,-27.93,-30.83,0,*67
1519336817.69,36606,11.06,72752.5,-12.07,-27.93,-30.83,0,*66
1519336818.96,36607,11.06,72756.5,-12.05,-27.83,-30.89,0,*6E
1519336820.2,36608,11.06,72754.5,-12.07,-27.93,-31.01,0,*63
1519336821.49,36609,11.06,72754.0,-12.07,-27.83,-30.73,0,*67
1519336822.72,36610,11.06,72752.3,-12.05,-27.77,-30.83,0,*69
1519336823.99,36611,11.06,72752.3,-12.07,-27.83,-30.83,0,*61
1519336825.26,36612,11.06,72754.3,-12.07,-27.77,-30.89,0,*63
1519336826.53,36613,11.06,72752.5,-12.07,-27.83,-30.83,0,*63
1519336827.76,36614,11.06,72752.3,-12.05,-27.77,-30.83,0,*6D
1519336829.01,36615,11.06,72752.3,-12.05,-27.77,-30.89,0,*66
1519336830.23,36616,11.06,72754.8,-12.05,-27.77,-30.83,0,*6F
1519336831.48,36617,11.06,72754.8,-12.07,-27.77,-30.67,0,*66
1519336832.71,36618,11.06,72752.5,-12.05,-27.77,-30.83,0,*61
1519336833.97,36619,11.06,72754.5,-12.05,-27.83,-30.89,0,*61
1519336835.24,36620,11.06,72752.3,-12.07,-27.83,-30.83,0,*63
1519336836.46,36621,11.06,72754.3,-12.05,-27.93,-31.01,0,*6A
1519336837.7,36622,11.06,72754.3,-12.05,-27.83,-31.01,0,*68
1519336838.93,36623,11.06,72752.8,-12.05,-27.83,-31.01,0,*69
1519336840.21,36624,11.06,72750.3,-12.07,-27.77,-30.89,0,*66
1519336841.45,36625,11.06,72754.3,-12.05,-27.83,-30.83,0,*64
1519336842.69,36626,11.06,72754.8,-12.05,-27.83,-31.01,0,*6C
1519336843.92,36627,11.06,72754.0,-12.05,-27.83,-31.01,0,*6D
1519336845.18,36628,11.06,72756.8,-12.01,-27.77,-30.83,0,*66
1519336846.41,36629,11.06,72752.0,-12.05,-27.83,-31.01,0,*63
1519336847.68,36630,11.06,72752.8,-12.01,-27.77,-30.95,0,*68
1519336848.93,36631,11.06,72754.0,-12.01,-27.77,-30.83,0,*6E
1519336850.18,36632,11.06,72754.0,-12.01,-27.77,-31.01,0,*66
1519336851.44,36633,11.06,72752.5,-12.01,-27.77,-30.95,0,*6B
1519336852.69,36634,11.06,72752.0,-12.01,-27.89,-31.01,0,*61
1519336853.93,36635,11.06,72752.5,-12.01,-27.89,-31.01,0,*60
1519336855.17,36636,11.06,72754.8,-12.01,-27.71,-31.01,0,*64
1519336856.41,36637,11.06,72756.0,-12.01,-27.77,-31.01,0,*63
1519336857.66,36638,11.06,72752.8,-12.01,-27.89,-30.83,0,*66
1519336858.93,36639,11.06,72754.3,-12.01,-27.77,-30.95,0,*61
1519336860.2,36640,11.06,72754.0,-12.01,-27.77,-30.95,0,*6F
1519336861.44,36641,11.06,72754.5,-12.01,-27.77,-31.01,0,*62
1519336862.68,36642,11.06,72752.5,-12.01,-27.71,-31.01,0,*67
1519336863.9,36643,11.06,72750.8,-11.99,-27.77,-31.01,0,*62
1519336865.14,36644,11.06,72752.8,-12.01,-27.71,-31.01,0,*61
1519336866.41,36645,11.06,72752.8,-12.01,-27.93,-31.11,0,*6D
1519336867.68,36646,11.06,72752.5,-12.01,-27.89,-30.95,0,*68
1519336868.9,36647,11.06,72754.3,-11.99,-27.89,-31.01,0,*67
1519336870.11,36648,11.06,72752.3,-11.99,-27.77,-31.01,0,*69
1519336871.36,36649,11.06,72754.8,-12.01,-27.93,-31.01,0,*60
1519336872.57,36650,11.06,72752.5,-11.99,-27.89,-31.01,0,*61
1519336873.81,36651,11.06,72752.3,-11.99,-27.77,-30.95,0,*6D
1519336875.03,36652,11.06,72752.0,-11.99,-27.71,-31.01,0,*64
1519336876.27,36653,11.13,72758.5,-11.99,-27.89,-31.11,0,*63
1519336877.51,36654,11.06,72752.8,-11.99,-27.89,-30.95,0,*69
1519336878.72,36655,11.06,72754.3,-11.99,-27.77,-31.01,0,*65
1519336879.97,36656,11.06,72752.3,-11.99,-27.93,-31.11,0,*6D
1519336881.21,36657,11.06,72752.3,-11.99,-27.89,-31.11,0,*67
1519336882.46,36658,11.06,72752.5,-11.99,-27.93,-31.11,0,*63
1519336883.68,36659,11.06,72752.0,-11.99,-27.93,-31.17,0,*64
1519336884.92,36660,11.06,72752.3,-11.99,-27.89,-31.11,0,*63
1519336886.18,36661,11.06,72748.5,-11.99,-27.83,-31.11,0,*68
1519336887.43,36662,11.06,72754.3,-11.99,-27.89,-31.11,0,*61
1519336888.69,36663,11.06,72754.0,-11.99,-27.83,-30.95,0,*67
1519336889.9,36664,11.06,72754.3,-11.99,-27.89,-31.05,0,*62
1519336891.17,36665,11.06,72754.0,-11.97,-27.99,-31.05,0,*6C
1519336892.39,36666,11.06,72752.3,-11.99,-27.89,-31.05,0,*60
1519336893.67,36667,11.06,72752.8,-11.97,-27.83,-30.95,0,*6D
1519336894.94,36668,11.06,72754.8,-11.97,-27.89,-30.95,0,*68
1519336896.2,36669,11.06,72752.3,-11.97,-27.99,-31.05,0,*60
1519336897.45,36670,11.06,72752.0,-11.97,-27.89,-31.05,0,*69
1519336898.68,36671,11.06,72750.5,-11.99,-27.83,-31.05,0,*6C
1519336899.95,36672,11.06,72750.8,-11.97,-27.89,-31.11,0,*6E
1519336901.24,36673,11.06,72752.5,-11.97,-27.99,-30.95,0,*63
1519336902.51,36674,11.06,72752.3,-11.97,-27.89,-30.95,0,*65
1519336903.77,36675,11.06,72752.5,-11.97,-27.89,-30.95,0,*64
1519336905.03,36676,11.06,72752.0,-11.97,-27.83,-31.05,0,*65
1519336906.26,36677,11.06,72752.5,-11.91,-27.93,-31.01,0,*67
1519336907.5,36678,11.06,72754.5,-11.95,-27.99,-31.05,0,*62
1519336908.74,36679,11.06,72754.3,-11.95,-27.99,-31.05,0,*63
1519336910.01,36680,11.06,72752.5,-11.95,-28.09,-31.11,0,*66
1519336911.26,36681,11.06,72752.5,-11.95,-27.99,-31.05,0,*64
1519336912.5,36682,11.06,72752.3,-11.95,-27.99,-31.05,0,*67
1519336913.74,36683,11.06,72750.8,-11.91,-27.99,-31.05,0,*62
1519336914.97,36684,11.06,72748.5,-11.95,-27.93,-31.01,0,*6F
1519336916.24,36685,11.06,72752.3,-11.89,-28.05,-31.01,0,*63
1519336917.51,36686,11.06,72754.8,-11.95,-28.09,-31.23,0,*61
1519336918.78,36687,11.06,72752.8,-11.91,-28.09,-31.11,0,*65
1519336920.06,36688,11.06,72754.3,-11.91,-28.09,-31.23,0,*6B
1519336921.3,36689,11.06,72752.5,-11.91,-28.15,-31.23,0,*67
1519336922.58,36690,11.06,72750.3,-11.91,-28.25,-31.11,0,*6D
1519336923.85,36691,11.06,72752.8,-11.91,-28.25,-31.11,0,*6C
1519336925.13,36692,11.06,72754.0,-11.91,-28.25,-31.23,0,*6E
1519336926.4,36693,11.06,72750.3,-11.91,-28.25,-31.11,0,*6E
1519336927.68,36694,11.06,72752.5,-11.89,-28.21,-31.17,0,*62
1519336928.98,36695,11.06,72752.3,-11.89,-28.25,-31.23,0,*60
1519336930.26,36696,11.06,72752.8,-11.91,-28.25,-31.23,0,*6A
1519336931.48,36697,11.06,72752.0,-11.91,-27.93,-31.05,0,*6D
1519336932.74,36698,11.06,72752.5,-11.89,-28.09,-31.05,0,*67
1519336933.99,36699,11.06,72754.5,-11.91,-28.15,-31.11,0,*67
1519336935.23,36700,11.06,72750.8,-11.91,-28.15,-31.11,0,*66
1519336936.51,36701,11.06,72754.8,-11.89,-28.21,-31.17,0,*6F
1519336937.76,36702,11.06,72752.0,-11.91,-28.31,-31.23,0,*63
1519336939.01,36703,11.06,72754.8,-11.91,-28.25,-31.29,0,*6D
1519336940.25,36704,11.06,72754.0,-11.91,-28.31,-31.23,0,*65
1519336941.51,36705,11.06,72750.5,-11.87,-28.25,-31.05,0,*62
1519336942.73,36706,11.06,72752.5,-11.87,-28.37,-31.17,0,*61
1519336943.98,36707,11.06,72752.0,-11.87,-28.21,-31.05,0,*64
1519336945.26,36708,11.06,72752.8,-11.89,-28.37,-31.23,0,*66
1519336946.53,36709,11.06,72756.8,-11.89,-28.25,-31.17,0,*63
1519336947.79,36710,11.06,72752.0,-11.87,-28.25,-31.05,0,*66
1519336949.03,36711,11.06,72754.0,-11.89,-27.93,-31.01,0,*6F
1519336950.32,36712,11.06,72752.0,-11.89,-28.05,-30.95,0,*60
1519336951.57,36713,11.06,72754.8,-11.87,-28.05,-31.01,0,*63
1519336952.84,36714,11.06,72752.8,-11.87,-28.09,-30.95,0,*64
1519336954.09,36715,11.06,72752.5,-11.87,-28.21,-31.01,0,*63
1519336955.34,36716,11.06,72748.3,-11.85,-28.31,-31.01,0,*63
1519336956.6,36717,11.06,72754.5,-11.85,-28.31,-31.11,0,*63
1519336957.87,36718,11.06,72754.3,-11.85,-28.31,-31.11,0,*6C
1519336959.14,36719,11.06,72754.8,-11.85,-28.21,-31.01,0,*6D
1519336960.42,36720,11.06,72754.5,-11.83,-28.21,-31.11,0,*60
1519336961.67,36721,11.06,72752.5,-11.83,-28.37,-31.11,0,*66
1519336962.89,36722,11.06,72752.0,-11.83,-28.15,-31.01,0,*64
1519336964.16,36723,11.06,72750.3,-11.83,-28.21,-31.11,0,*63
1519336965.44,36724,11.06,72752.5,-11.83,-28.05,-30.77,0,*63
1519336966.72,36725,11.06,72752.5,-11.83,-27.99,-30.77,0,*68
1519336968.03,36726,11.06,72754.8,-11.81,-28.09,-30.89,0,*6E
1519336969.31,36727,11.06,72752.3,-11.81,-28.09,-30.83,0,*65
1519336970.58,36728,11.06,72752.5,-11.81,-27.99,-30.83,0,*6C
1519336971.84,36729,11.06,72754.3,-11.81,-27.93,-30.67,0,*6D
1519336973.07,36730,11.06,72748.0,-11.79,-27.93,-30.67,0,*62
1519336974.34,36731,11.06,72754.5,-11.79,-27.99,-30.73,0,*6C
1519336975.62,36732,11.06,72754.5,-11.79,-28.25,-30.89,0,*62
1519336976.86,36733,11.06,72754.0,-11.79,-28.31,-30.95,0,*6B
1519336978.08,36734,11.06,72754.5,-11.79,-28.31,-31.05,0,*64
1519336979.29,36735,11.06,72754.0,-11.75,-28.31,-31.05,0,*69
1519336980.57,36736,11.06,72748.8,-11.75,-28.25,-30.89,0,*6A
1519336981.79,36737,11.06,72752.8,-11.75,-28.37,-31.01,0,*69
1519336983.07,36738,11.06,72754.8,-11.75,-28.25,-30.89,0,*64
1519336984.31,36739,11.06,72752.5,-11.75,-28.43,-31.17,0,*63
1519336985.55,36740,11.06,72748.5,-11.75,-28.43,-31.05,0,*6E
1519336986.77,36741,11.06,72750.8,-11.75,-28.37,-31.01,0,*68
1519336988.03,36742,11.06,72750.8,-11.73,-28.43,-31.05,0,*6A
1519336989.29,36743,11.06,72754.3,-11.73,-28.43,-31.05,0,*6B
1519336990.51,36744,11.06,72752.5,-11.75,-28.53,-31.05,0,*6B
1519336991.78,36745,11.06,72752.8,-11.71,-28.37,-30.95,0,*64
1519336993.02,36746,11.06,72756.5,-11.75,-28.43,-31.01,0,*6C
1519336994.24,36747,11.06,72752.8,-11.75,-28.53,-31.17,0,*6B
1519336995.51,36748,11.06,72750.8,-11.73,-28.59,-31.33,0,*6E
1519336996.79,36749,11.06,72752.0,-11.71,-28.53,-31.11,0,*67
1519336998.05,36750,11.06,72754.0,-11.71,-28.47,-31.01,0,*6B
1519336999.33,36751,11.06,72748.5,-11.71,-28.53,-31.11,0,*6E
1519337000.61,36752,11.06,72752.5,-11.71,-28.53,-31.11,0,*6D
1519337001.86,36753,11.06,72752.5,-11.71,-28.69,-31.29,0,*6E
1519337003.13,36754,11.06,72750.3,-11.71,-28.59,-31.29,0,*6A
1519337004.38,36755,11.06,72752.3,-11.71,-28.69,-31.17,0,*65
1519337005.66,36756,11.06,72752.3,-11.71,-28.75,-31.29,0,*66
1519337006.91,36757,11.06,72752.5,-11.71,-28.69,-31.29,0,*6A
1519337008.16,36758,11.06,72752.0,-11.71,-28.85,-31.33,0,*6C
1519337009.4,36759,11.06,72752.0,-11.71,-28.85,-31.33,0,*6D
1519337010.68,36760,11.06,72750.5,-11.71,-28.75,-31.29,0,*63
1519337011.93,36761,11.06,72748.8,-11.71,-28.85,-31.17,0,*60
1519337013.19,36762,11.06,72748.8,-11.71,-28.85,-31.29,0,*6E
1519337014.46,36763,11.06,72754.3,-11.71,-28.75,-31.17,0,*6D
1519337015.76,36764,11.06,72754.3,-11.73,-28.79,-31.23,0,*63
1519337017.03,36765,11.06,72754.8,-11.71,-28.75,-31.29,0,*66
1519337018.28,36766,11.06,72754.0,-11.71,-28.85,-31.29,0,*6A
1519337019.52,36767,11.06,72756.0,-11.69,-28.75,-31.33,0,*66
1519337020.8,36768,11.06,72752.0,-11.71,-28.91,-31.29,0,*61
1519337022.05,36769,11.06,72754.8,-11.69,-28.91,-31.29,0,*69
1519337023.33,36770,11.06,72752.5,-11.71,-28.91,-31.29,0,*68
1519337024.61,36771,11.06,72754.3,-11.71,-28.91,-31.17,0,*64
1519337025.87,36772,11.06,72754.0,-11.71,-28.85,-31.17,0,*62
1519337027.09,36773,11.06,72750.8,-11.69,-28.85,-31.17,0,*6A
1519337028.37,36774,11.06,72752.0,-11.71,-28.91,-31.33,0,*67
1519337029.65,36775,11.06,72750.5,-11.71,-28.91,-31.29,0,*6D
1519337030.92,36776,11.06,72752.0,-11.71,-29.01,-31.33,0,*6D
1519337032.19,36777,11.06,72750.5,-11.71,-28.91,-31.33,0,*64
1519337033.45,36778,11.06,72750.0,-11.69,-28.91,-31.29,0,*69
1519337034.7,36779,11.06,72750.5,-11.69,-28.91,-31.17,0,*65
1519337035.98,36780,11.06,72748.0,-11.71,-28.91,-31.17,0,*6A
1519337037.22,36781,11.06,72752.3,-11.69,-28.75,-31.17,0,*68
1519337038.5,36782,11.06,72752.8,-11.71,-28.85,-31.11,0,*6B
1519337039.75,36783,11.06,72754.3,-11.69,-28.91,-31.17,0,*60
1519337041.0,36784,11.06,72752.5,-11.69,-28.91,-31.17,0,*67
1519337042.25,36785,11.06,72752.3,-11.69,-28.91,-31.17,0,*66
1519337043.5,36786,11.06,72752.8,-11.69,-29.01,-31.29,0,*60
1519337044.77,36787,11.06,72754.0,-11.67,-28.97,-31.23,0,*6B
1519337046.04,36788,11.06,72752.3,-11.71,-29.01,-31.33,0,*6C
1519337047.32,36789,11.06,72752.5,-11.67,-28.85,-31.23,0,*66
1519337048.62,36790,11.06,72752.0,-11.67,-29.01,-31.23,0,*63
1519337049.89,36791,11.06,72754.8,-11.67,-29.01,-31.29,0,*68
1519337051.16,36792,11.06,72754.8,-11.67,-29.13,-31.29,0,*68
1519337052.43,36793,11.06,72754.3,-11.67,-29.01,-31.29,0,*6A
1519337053.72,36794,11.06,72754.8,-11.67,-29.01,-31.11,0,*66
1519337055.0,36795,11.06,72754.8,-11.67,-28.85,-31.11,0,*6A
1519337056.21,36796,11.06,72754.8,-11.65,-28.97,-31.05,0,*6D
1519337057.48,36797,11.06,72752.5,-11.67,-29.13,-31.29,0,*6D
1519337058.75,36798,11.06,72752.0,-11.67,-29.13,-31.29,0,*62
1519337060.02,36799,11.06,72748.0,-11.67,-29.13,-31.29,0,*63
1519337061.31,36800,11.06,72754.3,-11.67,-29.01,-31.23,0,*65
1519337062.61,36801,11.06,72754.0,-11.67,-29.13,-31.23,0,*67
1519337063.88,36802,11.06,72752.5,-11.65,-29.13,-31.39,0,*6D
1519337065.15,36803,11.06,72754.8,-11.67,-29.29,-31.45,0,*6C
1519337066.44,36804,11.06,72754.3,-11.67,-29.17,-31.39,0,*6D
1519337067.69,36805,11.06,72750.3,-11.65,-28.97,-31.23,0,*6C
1519337068.96,36806,11.06,72752.3,-11.65,-29.13,-31.23,0,*62
1519337070.26,36807,11.06,72750.0,-11.67,-29.01,-31.23,0,*62
1519337071.52,36808,11.06,72752.3,-11.67,-29.29,-31.29,0,*6D
1519337072.79,36809,11.06,72752.3,-11.67,-29.17,-31.29,0,*61
1519337074.07,36810,11.06,72748.8,-11.65,-29.01,-31.23,0,*66
1519337075.34,36811,11.06,72750.3,-11.65,-29.13,-31.23,0,*64
1519337076.61,36812,11.06,72748.8,-11.65,-29.13,-31.23,0,*67
1519337077.85,36813,11.06,72754.3,-11.65,-29.29,-31.29,0,*65
1519337079.1,36814,11.06,72754.0,-11.65,-29.17,-31.29,0,*6F
1519337080.36,36815,11.06,72752.5,-11.65,-29.17,-31.39,0,*6F
1519337081.66,36816,11.06,72748.0,-11.67,-29.17,-31.23,0,*65
1519337082.93,36817,11.06,72752.0,-11.61,-29.13,-31.23,0,*66
1519337084.17,36818,11.06,72754.3,-11.65,-29.17,-31.29,0,*63
1519337085.44,36819,11.06,72754.8,-11.65,-29.29,-31.23,0,*65
1519337086.71,36820,11.06,72752.5,-11.65,-29.17,-31.11,0,*63
1519337087.98,36821,11.06,72754.5,-11.67,-29.17,-31.29,0,*6B
1519337089.23,36822,11.06,72752.3,-11.65,-29.29,-31.29,0,*67
1519337090.49,36823,11.06,72752.5,-11.65,-29.29,-31.39,0,*67
1519337091.76,36824,11.06,72750.8,-11.65,-29.29,-31.39,0,*60
1519337093.0,36825,11.06,72752.8,-11.65,-29.13,-31.29,0,*69
1519337094.28,36826,11.06,72754.8,-11.65,-29.17,-31.23,0,*64
1519337095.52,36827,11.06,72752.0,-11.61,-29.23,-31.23,0,*66
1519337096.76,36828,11.06,72754.0,-11.61,-29.17,-31.17,0,*69
1519337098.06,36829,11.06,72750.3,-11.59,-28.91,-30.95,0,*67
1519337099.28,36830,11.06,72752.8,-11.61,-29.23,-31.17,0,*67
1519337100.49,36831,11.06,72754.5,-11.61,-29.23,-31.33,0,*60
1519337101.71,36832,11.06,72752.3,-11.61,-29.07,-31.17,0,*63
1519337102.98,36833,11.06,72752.5,-11.59,-29.17,-31.29,0,*65
1519337104.24,36834,11.06,72754.8,-11.59,-29.17,-31.33,0,*69
1519337105.49,36835,11.06,72752.3,-11.59,-29.23,-31.29,0,*64
1519337106.76,36836,11.06,72754.3,-11.61,-29.29,-31.23,0,*6C
1519337108.0,36837,11.06,72752.0,-11.59,-29.23,-31.17,0,*6B
1519337109.27,36838,11.06,72752.0,-11.61,-29.29,-31.39,0,*69
1519337110.53,36839,11.06,72748.5,-11.61,-29.29,-31.23,0,*63
1519337111.81,36840,11.06,72754.3,-11.61,-29.39,-31.39,0,*67
1519337113.08,36841,11.06,72754.3,-11.59,-29.39,-31.45,0,*66
1519337114.36,36842,11.06,72754.3,-11.59,-29.35,-31.33,0,*68
1519337115.63,36843,11.06,72752.0,-11.59,-29.35,-31.29,0,*62
1519337116.88,36844,11.06,72754.0,-11.61,-29.39,-31.33,0,*69
1519337118.15,36845,11.06,72754.3,-11.59,-29.35,-31.33,0,*6F
1519337119.39,36846,11.06,72750.0,-11.61,-29.45,-31.51,0,*64
1519337120.67,36847,11.06,72752.8,-11.59,-29.39,-31.29,0,*6A
1519337121.91,36848,11.06,72754.3,-11.61,-29.39,-31.33,0,*65
1519337123.19,36849,11.06,72752.8,-11.59,-29.35,-31.33,0,*63
1519337124.46,36850,11.06,72752.3,-11.61,-29.51,-31.39,0,*68
1519337125.71,36851,11.06,72754.3,-11.59,-29.45,-31.45,0,*6C
1519337126.98,36852,11.06,72752.5,-11.59,-29.39,-31.33,0,*65
1519337128.25,36853,11.06,72752.5,-11.59,-29.45,-31.61,0,*68
1519337129.5,36854,11.06,72754.8,-11.59,-29.45,-31.33,0,*68
1519337130.8,36855,11.06,72750.0,-11.59,-29.39,-31.39,0,*68
1519337132.07,36856,11.06,72752.5,-11.61,-29.51,-31.51,0,*60
1519337133.32,36857,11.06,72754.3,-11.59,-29.45,-31.45,0,*6A
1519337134.57,36858,11.06,72752.3,-11.59,-29.45,-31.45,0,*65
1519337135.82,36859,11.06,72750.0,-11.59,-29.57,-31.33,0,*66
1519337137.09,36860,11.06,72750.3,-11.59,-29.61,-31.51,0,*6D
1519337138.33,36861,11.06,72750.3,-11.59,-29.45,-31.33,0,*6E
1519337139.61,36862,11.06,72754.8,-11.61,-29.51,-31.51,0,*67
1519337140.87,36863,11.06,72752.5,-11.59,-29.61,-31.51,0,*6E
1519337142.13,36864,11.06,72754.0,-11.59,-29.57,-31.45,0,*69
1519337143.37,36865,11.06,72754.3,-11.59,-29.61,-31.45,0,*6D
1519337144.61,36866,11.06,72752.8,-11.61,-29.67,-31.57,0,*60
1519337145.84,36867,11.06,72750.3,-11.57,-29.57,-31.45,0,*64
1519337147.06,36868,11.06,72752.0,-11.57,-29.57,-31.33,0,*6A
1519337148.28,36869,11.06,72752.8,-11.57,-29.57,-31.45,0,*6A
1519337149.5,36870,11.06,72754.8,-11.57,-29.45,-31.29,0,*6B
1519337150.72,36871,11.06,72754.0,-11.57,-29.45,-31.33,0,*61
1519337151.99,36872,11.06,72752.0,-11.59,-29.79,-31.51,0,*67
1519337153.23,36873,11.06,72754.8,-11.57,-29.79,-31.61,0,*6B
1519337154.47,36874,11.06,72754.8,-11.57,-29.79,-31.51,0,*6F
1519337155.71,36875,11.06,72752.8,-11.57,-29.79,-31.61,0,*6D
1519337156.97,36876,11.06,72752.8,-11.59,-29.79,-31.51,0,*63
1519337158.22,36877,11.06,72750.8,-11.55,-29.67,-31.45,0,*64
1519337159.49,36878,11.06,72752.0,-11.57,-29.89,-31.61,0,*6F
1519337160.73,36879,11.06,72748.5,-11.57,-29.79,-31.61,0,*61
1519337162.0,36880,11.06,72752.3,-11.55,-29.83,-31.57,0,*65
1519337163.24,36881,11.06,72754.3,-11.57,-29.95,-31.61,0,*64
1519337164.49,36882,11.06,72754.5,-11.57,-29.95,-31.61,0,*67
1519337165.76,36883,11.06,72748.3,-11.57,-29.89,-31.61,0,*6B
1519337167.05,36884,11.06,72752.5,-11.59,-29.89,-31.61,0,*62
1519337168.29,36885,11.06,72750.5,-11.57,-29.79,-31.51,0,*61
1519337169.54,36886,11.06,72752.5,-11.57,-29.95,-31.61,0,*63
1519337170.78,36887,11.06,72754.0,-11.57,-29.95,-31.61,0,*62
1519337172.04,36888,11.06,72754.3,-11.57,-30.05,-31.61,0,*6C
1519337173.31,36889,11.06,72754.8,-11.57,-29.89,-31.61,0,*61
1519337174.58,36890,11.06,72752.8,-11.57,-29.73,-31.51,0,*6F
1519337175.82,36891,11.06,72754.8,-11.59,-29.79,-31.45,0,*6F
1519337177.06,36892,11.06,72752.8,-11.57,-29.79,-31.51,0,*67
1519337178.3,36893,11.06,72754.3,-11.57,-29.79,-31.51,0,*66
1519337179.53,36894,11.06,72752.3,-11.57,-29.61,-31.45,0,*6D
1519337180.82,36895,11.06,72752.5,-11.55,-29.89,-31.57,0,*6B
1519337182.09,36896,11.06,72750.0,-11.57,-29.89,-31.51,0,*6C
1519337183.32,36897,11.06,72754.3,-11.57,-29.73,-31.33,0,*6C
1519337184.59,36898,11.06,72748.5,-11.55,-29.73,-31.45,0,*60
1519337185.84,36899,11.06,72754.5,-11.57,-29.95,-31.61,0,*6D
1519337187.13,36900,11.06,72752.8,-11.55,-29.89,-31.57,0,*66
1519337188.39,36901,11.06,72750.3,-11.55,-30.05,-31.67,0,*68
1519337189.65,36902,11.06,72752.5,-11.55,-30.01,-31.67,0,*6F
1519337190.93,36903,11.06,72752.8,-11.55,-30.01,-31.51,0,*6B
1519337192.2,36904,11.06,72754.3,-11.57,-30.05,-31.61,0,*69
1519337193.45,36905,11.06,72752.3,-11.55,-29.83,-31.45,0,*6A
1519337194.73,36906,11.06,72750.3,-11.55,-30.05,-31.57,0,*6C
1519337196.0,36907,11.06,72752.8,-11.55,-30.05,-31.45,0,*6E
1519337197.28,36908,11.06,72748.8,-11.55,-30.05,-31.57,0,*62
1519337198.56,36909,11.06,72752.5,-11.51,-30.05,-31.57,0,*67
1519337199.83,36910,11.06,72750.0,-11.51,-29.83,-31.39,0,*61
1519337201.07,36911,11.06,72750.3,-11.57,-29.89,-31.33,0,*66
1519337202.36,36912,11.06,72752.0,-11.51,-29.73,-31.23,0,*67
1519337203.63,36913,11.06,72752.0,-11.51,-29.67,-31.23,0,*63
1519337204.91,36914,11.06,72752.8,-11.51,-29.89,-31.45,0,*64
1519337206.19,36915,11.06,72752.8,-11.51,-30.05,-31.57,0,*6A
1519337207.47,36916,11.06,72750.8,-11.51,-30.17,-31.57,0,*6A
1519337208.71,36917,11.06,72752.8,-11.49,-30.11,-31.51,0,*62
1519337209.97,36918,11.06,72752.8,-11.51,-30.23,-31.85,0,*6C
1519337211.23,36919,11.06,72752.0,-11.51,-30.23,-31.61,0,*67
1519337212.49,36920,11.06,72752.8,-11.49,-30.17,-31.73,0,*60
1519337213.72,36921,11.06,72752.5,-11.51,-30.23,-31.67,0,*6A
1519337214.92,36922,11.06,72754.8,-11.49,-30.23,-31.67,0,*60
1519337216.18,36923,11.06,72752.5,-11.51,-30.11,-31.73,0,*6C
1519337217.45,36924,11.06,72752.0,-11.51,-30.17,-31.45,0,*68
1519337218.72,36925,11.06,72752.3,-11.49,-30.17,-31.51,0,*65
1519337219.96,36926,11.06,72754.5,-11.49,-30.11,-31.23,0,*65
1519337221.24,36927,11.06,72750.8,-11.51,-30.01,-31.57,0,*6F
1519337222.5,36928,11.06,72752.3,-11.49,-30.17,-31.51,0,*68
1519337223.75,36929,11.06,72752.3,-11.49,-30.27,-31.61,0,*69
1519337225.01,36930,11.06,72752.0,-11.47,-30.27,-31.61,0,*6F
1519337226.3,36931,11.06,72748.8,-11.47,-30.01,-31.39,0,*67
1519337227.59,36932,11.06,72752.8,-11.47,-30.17,-31.51,0,*6D
1519337228.88,36933,11.06,72750.8,-11.47,-30.17,-31.73,0,*6C
1519337230.15,36934,11.06,72752.8,-11.47,-30.27,-31.73,0,*68
1519337231.4,36935,11.06,72752.3,-11.47,-30.33,-31.73,0,*6C
1519337232.66,36936,11.06,72754.8,-11.45,-30.39,-31.57,0,*61
1519337233.91,36937,11.06,72754.5,-11.47,-30.33,-31.73,0,*6E
1519337235.17,36938,11.06,72752.3,-11.47,-30.33,-31.73,0,*61
1519337236.43,36939,11.06,72752.5,-11.47,-30.33,-31.61,0,*63
1519337237.69,36940,11.06,72748.0,-11.47,-30.45,-31.73,0,*6F
1519337238.94,36941,11.06,72750.5,-11.47,-30.45,-31.73,0,*6E
1519337240.17,36942,11.06,72754.3,-11.45,-30.39,-31.67,0,*61
1519337241.44,36943,11.06,72754.3,-11.47,-30.33,-31.61,0,*6E
1519337242.64,36944,11.06,72752.5,-11.45,-30.45,-31.67,0,*6C
1519337243.9,36945,11.06,72752.3,-11.47,-30.51,-31.79,0,*65
1519337245.1,36946,11.06,72752.3,-11.45,-30.45,-31.67,0,*6E
1519337246.36,36947,11.06,72750.3,-11.47,-30.51,-31.79,0,*67
1519337247.65,36948,11.06,72754.3,-11.47,-30.51,-31.61,0,*61
1519337248.88,36949,11.06,72752.3,-11.45,-30.51,-31.67,0,*64
1519337250.14,36950,11.06,72752.5,-11.45,-30.61,-31.73,0,*6A
1519337251.43,36951,11.06,72748.8,-11.47,-30.51,-31.61,0,*69
1519337252.71,36952,11.06,72750.0,-11.47,-30.55,-31.61,0,*6E
1519337253.96,36953,11.06,72752.5,-11.47,-30.55,-31.79,0,*66
1519337255.23,36954,11.06,72752.8,-11.47,-30.67,-31.73,0,*6A
1519337256.46,36955,11.06,72752.3,-11.45,-30.51,-31.67,0,*69
1519337257.72,36956,11.06,72752.0,-11.45,-30.61,-31.91,0,*60
1519337258.98,36957,11.06,72750.0,-11.45,-30.61,-31.85,0,*64
1519337260.27,36958,11.06,72752.8,-11.47,-30.73,-31.95,0,*6B
1519337261.53,36959,11.06,72752.3,-11.43,-30.61,-31.67,0,*60
1519337262.76,36960,11.06,72752.8,-11.45,-30.51,-31.67,0,*6F
1519337263.99,36961,11.06,72750.5,-11.45,-30.67,-31.73,0,*6E
1519337265.26,36962,11.06,72754.5,-11.45,-30.77,-31.85,0,*65
1519337266.54,36963,11.06,72754.3,-11.43,-30.77,-31.85,0,*62
1519337267.78,36964,11.06,72754.3,-11.45,-30.67,-31.91,0,*67
1519337269.02,36965,11.06,72754.5,-11.45,-30.67,-31.85,0,*63
1519337270.28,36966,11.06,72752.3,-11.45,-30.77,-31.85,0,*61
1519337271.56,36967,11.06,72752.0,-11.43,-30.77,-31.73,0,*6F
1519337272.85,36968,11.06,72748.0,-11.43,-30.77,-31.73,0,*60
1519337274.11,36969,11.06,72754.0,-11.43,-30.83,-31.85,0,*63
1519337275.35,36970,11.06,72754.5,-11.45,-30.95,-32.01,0,*65
1519337276.59,36971,11.06,72754.3,-11.45,-30.83,-31.91,0,*69
1519337277.82,36972,11.06,72754.3,-11.45,-31.01,-31.91,0,*61
1519337279.09,36973,11.06,72754.8,-11.45,-31.11,-32.07,0,*6D
1519337280.33,36974,11.06,72756.3,-11.45,-31.01,-31.91,0,*67
1519337281.56,36975,11.06,72750.0,-11.45,-30.95,-32.01,0,*60
1519337282.83,36976,11.06,72754.5,-11.43,-30.83,-31.85,0,*6D
1519337284.09,36977,11.06,72750.5,-11.43,-31.11,-32.01,0,*69
1519337285.32,36978,11.06,72752.3,-11.43,-31.01,-32.01,0,*67
1519337286.56,36979,11.06,72752.3,-11.45,-30.83,-31.73,0,*6D
1519337287.82,36980,11.06,72750.0,-11.45,-30.95,-31.73,0,*6C
1519337289.08,36981,11.06,72750.8,-11.45,-30.95,-31.85,0,*64
1519337290.34,36982,11.06,72750.8,-11.43,-30.83,-31.73,0,*6F
1519337291.6,36983,11.06,72750.0,-11.43,-30.83,-31.73,0,*6E
1519337292.86,36984,11.06,72754.0,-11.43,-30.83,-31.73,0,*69
1519337294.12,36985,11.06,72750.8,-11.41,-30.77,-31.61,0,*62